Hourly Data Report for October 16, 2015

EUREKA CLIMATE
NUNAVUT

79°59'21.000" N
85°56'02.000" W
10.00 m
2401199
71613
NEK

Download Data

Hourly Data (October 2015)
Hourly Data Report for October 16, 2015
TIME
LST
Temp Definition
°C
Dew Point Definition
°C
Rel Hum Definition
%
Precip. Amount Definition
mm

Wind Dir Definition
10's deg

Wind Spd Definition
km/h
Visibility Definition
km
Stn Press Definition
kPa
Hmdx Definition


Wind Chill Definition


Weather Definition


00:00 -23.9 -26.0 83 0.0 12 9   99.39   -31 LegendNANA
01:00 -22.6 -24.5 84 0.0 11 12   99.44   -31 LegendNANA
02:00 -22.3 -24.1 85 0.0 10 14   99.48   -32 LegendNANA
03:00 -23.2 -25.1 84 0.0 10 15   99.54   -33 LegendNANA
04:00 -21.9 -23.8 85 0.0 10 9   99.58   -29 LegendNANA
05:00 -19.9 -21.5 87 0.0 10 8   99.60   -26 LegendNANA
06:00 -19.7 -21.3 87 0.0 11 11   99.61   -27 LegendNANA
07:00 -19.2 -20.8 88 0.0 12 6   99.64   -24 LegendNANA
08:00 -19.0 -20.5 88 0.0 11 9   99.66   -26 LegendNANA
09:00 -18.4 -19.9 88 0.0 11 9   99.70   -25 LegendNANA
10:00 -18.1 -19.5 89 0.0 10 8   99.72   -24 LegendNANA
11:00 -17.7 -19.1 89 0.0 10 7   99.73   -23 LegendNANA
12:00 -15.5 -16.6 91 0.0 14 4   99.77   -18 LegendNANA
13:00 -13.3 -14.3 92 0.0 36 13   99.81   -20 LegendNANA
14:00 -12.9 -13.9 93 0.0 1 13   99.88   -20 LegendNANA
15:00 -12.6 -13.5 93 0.0 29 19   99.95   -21 LegendNANA
16:00 -12.2 -13.1 93 0.0 28 18   100.00   -20 LegendNANA
17:00 -12.6 -13.6 93 0.0 27 19   100.05   -21 LegendNANA
18:00 -12.5 -13.3 93 0.0 31 9   100.09   -18 LegendNANA
19:00 -12.6 -13.5 93 0.0 28 17   100.12   -20 LegendNANA
20:00 -12.5 -13.4 93 0.0 29 19   100.14   -21 LegendNANA
21:00 -12.6 -13.5 93 0.0 28 14   100.19   -20 LegendNANA
22:00 -12.6 -13.5 93 0.0 30 20   100.22   -21 LegendNANA
23:00 -12.5 -13.5 93 0.0 30 18   100.27   -21 LegendNANA

Notes on Data Quality.

Legend

  • E = Estimated
  • M = Missing
  • NA = Not Available*
  • [empty] = Indicates an unobserved value
Date modified: